Regional Weather Roundup
Issued by NWS State College, PA

Home | Current Version | Previous Version | Text Only | Print | Product List | Glossary On
Versions: 1 2 3 4 5 6 7 8 9 10 11 12 13 14 15 16 17 18 19 20 21 22 23 24 25 26 27 28 29 30 31 32 33 34 35 36 37 38 39 40 41 42 43 44 45 46 47 48 49 50
000
ASUS41 KCTP 211010
RWRCTP

REGIONAL WEATHER ROUNDUP
NATIONAL WEATHER SERVICE STATE COLLEGE PA
600 AM EDT TUE OCT 21 2014

Note: "fair" indicates few or no clouds below 12,000 feet with no
significant weather and/or obstructions to visibility.

* = STATION THAT DOES NOT REPORT PRECIPITATION /E.G. RAIN...SNOW...ETC/
    THUNDER OR FOG.

PAZ002>004-007>009-013>016-020>023-029>032-211100-
WESTERN PENNSYLVANIA

CITY           SKY/WX    TMP DP  RH WIND       PRES   REMARKS
ERIE           CLOUDY    53  47  79 N7        29.82S
MEADVILLE      CLOUDY    50  48  93 CALM      29.82R FOG
FRANKLIN*      CLOUDY    48  45  87 SW5       29.84R
NEW CASTLE       N/A     50  50 100 CALM      29.84S FOG
BEAVER COUNTY  NOT AVBL
BUTLER*        CLOUDY    50  46  87 SW6       29.86R
PITTSBURGH INT CLOUDY    50  49  96 SW6       29.85R
PITTSBURGH     CLOUDY    50  46  86 W7        29.84R FOG
INDIANA*       CLOUDY    48  48 100 W6        29.87S FOG
LATROBE        CLOUDY    52  52 100 SW7       29.86S
WASHINGTON CO* CLOUDY    46  45  93 SW5       29.87S
$$

PAZ004>006-010>012-017>019-024>028-033>037-041-042-045-046-049>053-211100-
CENTRAL PENNSYLVANIA

CITY           SKY/WX    TMP DP  RH WIND       PRES   REMARKS
BRADFORD       LGT RAIN  47  44  90 SW5       29.80S
DUBOIS         CLOUDY    48  47  96 SW8       29.81S
CLEARFIELD     LGT RAIN  47  47 100 S5        29.83S FOG
JOHNSTOWN      LGT RAIN  47  44  90 SW5       29.83S FOG
ALTOONA        CLOUDY    49  45  86 SW6       29.84F
STATE COLLEGE  CLOUDY    46  45  93 CALM      29.83F
WILLIAMSPORT   CLOUDY    49  44  83 CALM      29.83S
SELINSGROVE    CLOUDY    50  46  86 CALM      29.85S
FT INDIANTOWN  FOG       50  50 100 N1        29.86S VSB 1/4
CAPITAL CITY   CLOUDY    51  50  96 CALM      29.86S FOG
HARRISBURG     MOCLDY    49  48  97 CALM      29.85S FOG
YORK           FOG       45  45 100 CALM      29.85S VSB 1/4
$$

PAZ038>040-043-044-047-048-054-055-060>062-067>071-211100-
EASTERN PENNSYLVANIA

CITY           SKY/WX    TMP DP  RH WIND       PRES   REMARKS
SCRANTON       CLOUDY    51  46  83 CALM      29.85S
MOUNT POCONO   CLOUDY    48  46  93 CALM      29.85F
ALLENTOWN      CLOUDY    51  48  89 NE5       29.87S
QUAKERTOWN*    PTSUNNY   48  48 100 CALM      29.87F
READING        CLOUDY    52  50  93 CALM      29.85F
LANCASTER      CLOUDY    50  49  96 CALM      29.86S FOG
COATESVILLE    LGT RAIN  50  48  93 CALM      29.87S
POTTSTOWN      CLOUDY    51  47  86 CALM      29.88S
BLUE BELL      MOCLDY    50  48  93 CALM      29.86F
DOYLESTOWN     MOCLDY    48  47  96 CALM      29.87F
WILLOW GROVE   NOT AVBL
NORTH PHILA    MOCLDY    50  44  80 E3        29.89F
PHILADELPHIA   CLOUDY    53  48  83 CALM      29.87F
$$


USA.gov is the U.S. government's official web portal to all federal, state and local government web resources and services.